Full Index
Showing up to 100 newest rows before ID 5680680.
| ID | Domain | Status | Last visit | URL |
|---|---|---|---|---|
| 5680674 | www.domkondicionerov.ru | 200 | 2026-08-28 15:01:52 | https://www.domkondicionerov.ru/ |
| 5680669 | www.bydhh.com.cn | 200 | 2026-08-28 15:01:36 | https://www.bydhh.com.cn/ |
| 5680667 | www.hyjidi.cn | 200 | 2026-08-28 15:01:30 | http://www.hyjidi.cn/ |
| 5680666 | professorsabbag.com.br | 404 | 2026-08-28 15:01:04 | http://professorsabbag.com.br/ |
| 5680663 | www.geoco.org | 403 | 2026-08-28 15:00:42 | https://www.geoco.org/ |
| 5680659 | www.nordicnames.de | 200 | 2026-08-28 15:00:40 | https://www.nordicnames.de/ |
| 5680652 | members.calbar.ca.gov | 200 | 2026-08-28 14:59:49 | http://members.calbar.ca.gov/ |
| 5680650 | www.lacba.org | 403 | 2026-08-28 14:59:46 | https://www.lacba.org/ |
| 5680648 | incaaccessories.tumblr.com | 200 | 2026-08-28 14:59:32 | https://incaaccessories.tumblr.com/ |
| 5680643 | poserinka.devilcantburn.com | 404 | 2026-08-28 14:59:29 | http://poserinka.devilcantburn.com/ |
| 5680637 | grow.grin.co | 200 | 2026-08-28 14:57:01 | https://grow.grin.co/ |
| 5680635 | toddquill2.wikidot.com | 200 | 2026-08-28 14:56:59 | http://toddquill2.wikidot.com/ |
| 5680628 | www.joeproduce.com | 200 | 2026-08-28 14:56:48 | https://www.joeproduce.com/ |
| 5680624 | joeforit.myclickfunnels.com | 200 | 2026-08-28 14:56:47 | https://joeforit.myclickfunnels.com/ |
| 5680622 | 40overhairremoval.jp | 404 | 2026-08-28 14:55:42 | https://40overhairremoval.jp/ |
| 5680621 | keibageinou.com | 200 | 2026-08-28 14:55:41 | https://keibageinou.com/ |
| 5680620 | xn--qckyd1c280nuitrv9ao66b.jpn.com | 200 | 2026-08-28 14:55:38 | https://xn--qckyd1c280nuitrv9ao66b.jpn.com/ |
| 5680619 | www.mangabiyori.online | 404 | 2026-08-28 14:55:35 | https://www.mangabiyori.online/ |
| 5680617 | www.brooksequipment.com | 200 | 2026-08-28 14:55:30 | https://www.brooksequipment.com/ |
| 5680614 | www.myextralife.com | 200 | 2026-08-28 14:54:36 | https://www.myextralife.com/ |
| 5680589 | panel.helikon-tex.com | 200 | 2026-08-28 14:54:02 | https://panel.helikon-tex.com/ |
| 5680568 | jeffrey-rothchild-1.squarespace.com | 200 | 2026-08-28 14:53:24 | https://jeffrey-rothchild-1.squarespace.com/ |
| 5680559 | matangazo.royalmedia.co.ke | 200 | 2026-08-28 14:49:55 | https://matangazo.royalmedia.co.ke/ |
| 5680558 | viutravel.com | 200 | 2026-08-28 14:49:53 | https://viutravel.com/ |
| 5680557 | viusasa.com | 200 | 2026-08-28 14:49:50 | https://viusasa.com/ |
| 5680556 | royalmedia.co.ke | 200 | 2026-08-28 14:49:50 | https://royalmedia.co.ke/ |
| 5680552 | www.wevolver.com | 200 | 2026-08-28 14:49:38 | https://www.wevolver.com/ |
| 5680550 | studio.pushba.ru | 200 | 2026-08-28 14:49:27 | https://studio.pushba.ru/ |
| 5680549 | photo.pushba.ru | 200 | 2026-08-28 14:49:24 | https://photo.pushba.ru/ |
| 5680531 | www.interstatehotels.com | 200 | 2026-08-28 14:47:43 | https://www.interstatehotels.com/ |
| 5680529 | photogifts.ezprints.com | 200 | 2026-08-28 14:47:37 | https://photogifts.ezprints.com/ |
| 5680528 | www.ezprints.com | 200 | 2026-08-28 14:47:36 | https://www.ezprints.com/ |
| 5680517 | www.lionking.com | 200 | 2026-08-28 14:46:02 | https://www.lionking.com/ |
| 5680512 | digitaleyeprojects.com | 404 | 2026-08-28 14:45:57 | http://digitaleyeprojects.com/ |
| 5680507 | acertijosymascosas.wordpress.com | 200 | 2026-08-28 14:45:39 | https://acertijosymascosas.wordpress.com/ |
| 5680500 | elbauldeleo.blogspot.com | 200 | 2026-08-28 14:45:27 | https://elbauldeleo.blogspot.com/ |
| 5680497 | elematika.hr | 200 | 2026-08-28 14:45:25 | https://elematika.hr/ |
| 5680492 | www.riffbox.org | 200 | 2026-08-28 14:44:18 | https://www.riffbox.org/ |
| 5680489 | www.unlockforum.com | 200 | 2026-08-28 14:44:18 | https://www.unlockforum.com/ |
| 5680488 | riff.turbo-support.com | 200 | 2026-08-28 14:44:17 | https://riff.turbo-support.com/ |
| 5680487 | www.portugalismo.de | 200 | 2026-08-28 14:44:15 | https://www.portugalismo.de/ |
| 5680483 | www.amumot-shop.de | 200 | 2026-08-28 14:44:15 | https://www.amumot-shop.de/ |
| 5680480 | www.nudeinfrance.com | 200 | 2026-08-28 14:39:31 | http://www.nudeinfrance.com/ |
| 5680479 | www.lafranceapoil.com | 200 | 2026-08-28 14:39:31 | https://www.lafranceapoil.com/ |
| 5680474 | www.mantasis.com | 200 | 2026-08-28 14:39:21 | https://www.mantasis.com/ |
| 5680471 | assistance.recevoirlatnt.fr | 200 | 2026-08-28 14:39:17 | https://assistance.recevoirlatnt.fr/ |
| 5680469 | anfr.fr | 200 | 2026-08-28 14:39:16 | http://anfr.fr/ |
| 5680464 | www.am-businessangels.org | 200 | 2026-08-28 14:39:12 | http://www.am-businessangels.org/ |
| 5680460 | www.max7.de | 200 | 2026-08-28 14:39:04 | https://www.max7.de/ |
| 5680459 | www.max7.de | 200 | 2026-08-28 14:38:57 | http://www.max7.de/ |
| 5680452 | soliqz.tumblr.com | 200 | 2026-08-28 14:38:52 | https://soliqz.tumblr.com/ |
| 5680451 | eastsidepapi.tumblr.com | 200 | 2026-08-28 14:38:51 | https://eastsidepapi.tumblr.com/ |
| 5680450 | icygiirl.tumblr.com | 200 | 2026-08-28 14:38:50 | https://icygiirl.tumblr.com/ |
| 5680445 | texasmanandvan.com | 200 | 2026-08-28 14:38:29 | http://texasmanandvan.com/ |
| 5680443 | texasmanandvan.com | 200 | 2026-08-28 14:38:22 | https://texasmanandvan.com/ |
| 5680442 | tumblrix.com | 404 | 2026-08-28 14:38:20 | https://tumblrix.com/ |
| 5680420 | shop.cec.ee | 200 | 2026-08-28 14:36:34 | http://shop.cec.ee/ |
| 5680401 | javascript.plainenglish.io | 200 | 2026-08-28 14:35:29 | https://javascript.plainenglish.io/ |
| 5680395 | textformer.de | 200 | 2026-08-28 14:35:21 | https://textformer.de/ |
| 5680379 | swanlanding.com | 200 | 2026-08-28 14:35:09 | https://swanlanding.com/ |
| 5680377 | galeforceaudio.com | 200 | 2026-08-28 14:35:07 | https://galeforceaudio.com/ |
| 5680376 | dieselalternators.com | 200 | 2026-08-28 14:35:07 | https://dieselalternators.com/ |
| 5680375 | www.mechman.com | 200 | 2026-08-28 14:35:05 | https://www.mechman.com/ |
| 5680374 | www.alternatoroutlet.com | 200 | 2026-08-28 14:35:02 | https://www.alternatoroutlet.com/ |
| 5680367 | zoomiamiconservation.com | 200 | 2026-08-28 14:34:50 | https://zoomiamiconservation.com/ |
| 5680364 | licon.kz | 200 | 2026-08-28 14:33:47 | https://licon.kz/ |
| 5680363 | imix.studio | 404 | 2026-08-28 14:33:45 | https://imix.studio/ |
| 5680361 | yorokobukao.blog.fc2.com | 200 | 2026-08-28 14:33:31 | http://yorokobukao.blog.fc2.com/ |
| 5680360 | opentp2.blog.fc2.com | 200 | 2026-08-28 14:33:30 | http://opentp2.blog.fc2.com/ |
| 5680359 | kurokonobasukeaonoao.blog.fc2.com | 200 | 2026-08-28 14:33:28 | http://kurokonobasukeaonoao.blog.fc2.com/ |
| 5680355 | offroaders.com | 200 | 2026-08-28 14:33:14 | http://offroaders.com/ |
| 5680354 | www.offroaders.com | 200 | 2026-08-28 14:33:10 | http://www.offroaders.com/ |
| 5680353 | www.offroaders.com | 200 | 2026-08-28 14:33:02 | https://www.offroaders.com/ |
| 5680349 | www.whistleblowerlegal.com | 200 | 2026-08-28 14:32:39 | http://www.whistleblowerlegal.com/ |
| 5680348 | www.whistleblowerlegal.com | 200 | 2026-08-28 14:32:31 | https://www.whistleblowerlegal.com/ |
| 5680341 | ichotels.dev.clockwork.ist | 404 | 2026-08-28 14:32:20 | https://ichotels.dev.clockwork.ist/ |
| 5680340 | blog.vivelelevage.com | 200 | 2026-08-28 14:32:04 | https://blog.vivelelevage.com/ |
| 5680338 | www.vivelelevage.com | 200 | 2026-08-28 14:32:03 | https://www.vivelelevage.com/ |
| 5680332 | sealyrugs.com | 200 | 2026-08-28 14:31:51 | https://sealyrugs.com/ |
| 5680331 | www.bluechipfarms.com | 200 | 2026-08-28 14:31:45 | https://www.bluechipfarms.com/ |
| 5680330 | www.newyorkersforharnessracing.com | 200 | 2026-08-28 14:31:45 | https://www.newyorkersforharnessracing.com/ |
| 5680327 | www.bluechipfarmsyearlings.com | 200 | 2026-08-28 14:31:44 | https://www.bluechipfarmsyearlings.com/ |
| 5680306 | riffspot.com | 200 | 2026-08-28 14:30:03 | https://riffspot.com/ |
| 5680301 | tibiame4all.com | 200 | 2026-08-28 14:29:56 | http://tibiame4all.com/ |
| 5680300 | www.tibiame.com | 200 | 2026-08-28 14:29:56 | http://www.tibiame.com/ |
| 5680287 | grawriold.sneaguno.games | 200 | 2026-08-28 14:29:25 | https://grawriold.sneaguno.games/ |
| 5680283 | hy-labo.com | 200 | 2026-08-28 14:29:10 | https://hy-labo.com/ |
| 5680281 | akita-nct.coop-edu.jp | 200 | 2026-08-28 14:29:06 | http://akita-nct.coop-edu.jp/ |
| 5680271 | www.pvconcerthall.com | 200 | 2026-08-28 14:28:43 | http://www.pvconcerthall.com/ |
| 5680270 | www.theamp.com | 200 | 2026-08-28 14:28:42 | http://www.theamp.com/ |
| 5680269 | www.amentora.com | 200 | 2026-08-28 14:28:33 | https://www.amentora.com/ |
| 5680264 | www.apolocybersecurity.com | 200 | 2026-08-28 14:27:31 | https://www.apolocybersecurity.com/ |
| 5680263 | www.allot.com | 200 | 2026-08-28 14:27:30 | https://www.allot.com/ |
| 5680262 | www.algosec.com | 200 | 2026-08-28 14:27:30 | https://www.algosec.com/ |
| 5680260 | airspan.com | 200 | 2026-08-28 14:27:27 | https://airspan.com/ |
| 5680259 | www.adtran-networks.com | 200 | 2026-08-28 14:27:26 | https://www.adtran-networks.com/ |
| 5680224 | enescostudios.com | 200 | 2026-08-28 14:23:42 | https://enescostudios.com/ |
| 5680223 | www.allendesignsstudio.com | 200 | 2026-08-28 14:23:41 | https://www.allendesignsstudio.com/ |
| 5680222 | designsbylolita.co | 200 | 2026-08-28 14:23:40 | https://designsbylolita.co/ |
| 5680221 | jimshore.com | 200 | 2026-08-28 14:23:40 | https://jimshore.com/ |